TimePDT,TemperatureF,Dew PointF,Humidity,Sea Level PressureIn,VisibilityMPH,Wind Direction,Wind SpeedMPH,Gust SpeedMPH,PrecipitationIn,Events,Conditions,WindDirDegrees,DateUTC
12:55 AM,46.0,43.0,89,30.17,6.0,Calm,Calm,-,N/A,,Clear,0,2013-10-17 07:55:00
1:55 AM,46.0,43.0,89,30.17,5.0,Calm,Calm,-,N/A,,Clear,0,2013-10-17 08:55:00
2:55 AM,46.0,45.0,96,30.17,4.0,Calm,Calm,-,N/A,,Clear,0,2013-10-17 09:55:00
3:55 AM,44.1,41.0,89,30.17,5.0,Calm,Calm,-,N/A,,Clear,0,2013-10-17 10:55:00
4:55 AM,44.1,43.0,96,30.19,4.0,Calm,Calm,-,N/A,,Clear,0,2013-10-17 11:55:00
5:03 AM,44.6,42.8,93,30.19,3.0,Calm,Calm,-,N/A,,Scattered Clouds,0,2013-10-17 12:03:00
5:13 AM,44.6,42.8,93,30.19,5.0,Calm,Calm,-,N/A,,Mostly Cloudy,0,2013-10-17 12:13:00
5:55 AM,46.0,44.1,93,30.19,5.0,ESE,3.5,-,N/A,,Overcast,110,2013-10-17 12:55:00
6:55 AM,46.0,44.1,93,30.19,4.0,East,3.5,-,N/A,,Mostly Cloudy,90,2013-10-17 13:55:00
7:15 AM,44.6,42.8,93,30.19,4.0,Calm,Calm,-,N/A,,Scattered Clouds,0,2013-10-17 14:15:00
7:55 AM,45.0,44.1,97,30.20,2.5,East,3.5,-,N/A,,Scattered Clouds,90,2013-10-17 14:55:00
8:08 AM,44.6,44.6,100,30.20,2.5,Calm,Calm,-,N/A,,Mostly Cloudy,0,2013-10-17 15:08:00
8:16 AM,44.6,44.6,100,30.20,3.0,Calm,Calm,-,N/A,,Mostly Cloudy,0,2013-10-17 15:16:00
8:35 AM,46.4,44.6,93,30.21,2.5,East,4.6,-,N/A,,Mostly Cloudy,100,2013-10-17 15:35:00
8:46 AM,46.4,46.4,100,30.21,3.0,Calm,Calm,-,N/A,,Mostly Cloudy,0,2013-10-17 15:46:00
8:53 AM,46.4,46.4,100,30.21,3.0,Calm,Calm,-,N/A,,Scattered Clouds,0,2013-10-17 15:53:00
8:55 AM,46.9,46.0,97,30.21,3.0,Calm,Calm,-,N/A,,Scattered Clouds,0,2013-10-17 15:55:00
9:55 AM,51.1,48.0,89,30.22,4.0,ENE,4.6,-,N/A,,Clear,70,2013-10-17 16:55:00
10:55 AM,55.0,48.9,80,30.22,6.0,NE,9.2,-,N/A,,Haze,40,2013-10-17 17:55:00
11:55 AM,57.0,48.9,74,30.21,7.0,NE,8.1,-,N/A,,Clear,40,2013-10-17 18:55:00
12:55 PM,59.0,50.0,72,30.20,8.0,NNE,8.1,-,N/A,,Clear,20,2013-10-17 19:55:00
1:55 PM,59.0,50.0,72,30.19,8.0,North,9.2,-,N/A,,Clear,360,2013-10-17 20:55:00
2:55 PM,57.9,51.1,78,30.19,6.0,NNW,9.2,-,N/A,,Haze,330,2013-10-17 21:55:00
3:55 PM,60.1,52.0,75,30.18,6.0,North,5.8,-,N/A,,Haze,360,2013-10-17 22:55:00
4:55 PM,61.0,52.0,72,30.17,6.0,NW,5.8,-,N/A,,Haze,320,2013-10-17 23:55:00
5:55 PM,57.9,52.0,81,30.16,7.0,NNW,4.6,-,N/A,,Clear,330,2013-10-18 00:55:00
6:55 PM,55.0,50.0,83,30.16,7.0,Calm,Calm,-,N/A,,Clear,0,2013-10-18 01:55:00
7:55 PM,52.0,48.9,89,30.17,7.0,Calm,Calm,-,N/A,,Clear,0,2013-10-18 02:55:00
8:55 PM,52.0,46.9,83,30.18,7.0,East,3.5,-,N/A,,Clear,100,2013-10-18 03:55:00
9:55 PM,52.0,48.0,86,30.18,7.0,Calm,Calm,-,N/A,,Clear,0,2013-10-18 04:55:00
10:55 PM,48.0,46.0,93,30.17,6.0,Calm,Calm,-,N/A,,Clear,0,2013-10-18 05:55:00
11:55 PM,48.9,46.9,93,30.17,5.0,Calm,Calm,-,N/A,,Clear,0,2013-10-18 06:55:00